Theta_e
298 298 298 297 297 298 298 297 297 297 297 297 296 296 296 296 295 295 295 296 295 295 296 297 297 298 298 298 299 299 299 301
297 297 297 297 296 296 296 296 295 295 295 295 294 295 294 293 293 293 294 294 294 294 294 294 294 294 294 294 295 295 295 296
296 296 296 296 295 294 294 294 294 295 294 293 293 292 292 291 292 292 292 292 292 292 292 292 292 292 291 291 291 291 291 293
295 295 294 293 293 292 292 292 293 293 292 291 290 290 290 290 290 291 290 290 290 290 289 289 290 289 290 289 289 290 290 290
295 294 294 293 291 291 291 291 291 291 290 289 289 289 289 289 289 288 288 288 288 288 287 287 287 288 287 287 287 288 288 289
295 294 292 291 290 290 290 290 291 290 289 288 288 288 287 286 286 285 284 286 285 284 284 285 286 287 286 285 286 285 286 286
295 293 292 291 290 290 289 289 289 287 286 286 285 285 284 284 284 283 283 283 283 283 283 283 285 289 290 289 285 284 284 284
294 293 292 291 290 289 288 288 286 284 284 284 284 283 283 283 282 282 282 282 282 282 282 282 282 288 289 288 285 284 283 284
293 292 291 290 289 288 287 286 285 284 283 282 282 281 282 281 280 281 281 280 280 281 281 281 282 287 288 287 284 283 283 283
293 292 290 289 288 285 285 285 284 283 282 282 281 279 279 276 278 279 278 278 277 280 278 278 283 286 286 286 284 283 283 284
291 290 288 287 286 285 284 283 282 282 282 281 280 276 276 278 277 277 276 281 281 283 284 283 284 286 286 285 284 282 282 284
290 288 287 285 285 283 283 282 281 280 279 278 278 275 275 275 276 274 275 278 275 279 280 284 281 280 287 287 284 283 282 283
286 284 284 284 284 282 282 280 278 276 276 273 271 274 275 269 269 270 271 272 274 274 278 278 279 284 286 286 286 286 283 283
284 283 282 282 283 281 278 277 274 271 267 267 268 270 270 267 268 270 269 270 274 275 277 279 281 284 286 286 286 286 284 284
282 281 279 279 279 277 275 272 267 265 267 268 267 267 268 272 273 267 267 271 273 275 276 278 280 282 283 283 284 284 284 285
282 281 279 277 274 272 271 269 268 266 268 267 268 266 268 269 269 271 271 272 272 277 278 278 278 281 284 284 283 284 285 284
279 277 274 272 270 267 265 265 263 265 267 266 266 266 268 268 270 276 278 279 280 281 280 280 283 284 285 286 284 285 286 275
276 272 269 268 265 262 262 262 262 262 263 263 265 264 264 264 266 268 271 276 277 279 280 281 282 283 285 284 283 284 283 277
271 269 267 266 264 262 260 259 256 256 261 259 260 260 261 262 262 264 267 267 269 275 277 279 281 282 282 282 281 277 274 275
265 263 263 261 259 258 256 257 255 258 259 259 259 259 261 261 264 266 267 268 269 271 274 275 280 280 280 281 274 273 271 271
Wind_Speed
7 8 6 7 7 8 7 8 8 8 7 8 8 8 7 6 7 7 6 7 7 7 7 6 6 7 6 4 5 5 4 5
7 7 7 7 7 7 7 8 8 7 7 8 7 7 7 7 6 6 6 6 6 6 6 6 6 6 6 6 6 7 6 6
8 8 7 7 7 7 7 7 6 7 7 8 7 7 7 6 6 6 6 6 6 6 6 6 6 6 6 6 6 7 7 8
8 7 7 7 7 7 6 6 6 7 8 8 7 7 7 6 6 6 6 6 6 6 7 7 6 6 5 5 7 7 7 7
8 8 8 7 7 7 6 6 6 8 8 8 6 6 5 5 5 6 6 6 6 6 6 6 6 6 6 6 7 8 8 8
11 10 8 8 8 7 6 6 6 8 7 6 5 5 5 6 6 5 6 5 5 6 6 6 6 5 7 6 7 9 10 10
13 13 11 10 8 8 7 6 7 7 7 5 5 6 6 6 6 6 5 5 6 6 6 7 6 14 15 12 7 8 9 11
15 14 11 11 10 9 8 7 7 7 6 5 5 6 4 3 4 4 5 5 5 5 5 6 6 15 17 16 8 9 8 10
14 13 11 8 9 9 7 7 7 6 5 4 4 2 3 3 4 4 3 5 5 5 5 6 6 15 19 19 9 8 8 8
14 14 12 11 10 9 8 7 7 6 5 3 1 1 2 3 3 4 3 3 3 4 5 6 10 17 20 18 12 11 13 12
16 14 13 10 10 10 7 7 6 5 4 2 1 0 2 3 4 3 2 6 4 9 10 9 12 15 18 16 8 12 10 11
15 13 11 10 10 9 8 7 5 4 3 2 1 1 3 3 2 3 5 5 4 6 6 7 7 7 16 17 11 9 10 10
15 13 9 8 9 9 7 6 6 4 3 2 2 1 1 2 4 4 4 4 5 6 7 4 6 8 14 18 18 15 9 9
15 14 8 6 7 9 6 6 5 4 2 0 2 2 2 2 4 3 3 3 5 5 7 7 4 4 12 15 17 14 10 7
14 12 10 6 6 6 6 5 5 4 2 1 1 3 3 2 3 2 2 4 4 6 7 9 8 7 5 5 7 10 9 9
11 10 10 8 7 5 6 5 5 3 1 2 2 3 4 3 3 2 4 5 5 8 8 11 12 11 16 13 8 9 9 6
9 11 9 7 6 5 5 5 5 3 3 2 1 2 3 4 6 8 12 14 16 19 17 11 21 25 24 18 18 20 18 1
9 8 8 7 6 4 5 5 5 4 1 1 2 2 2 2 4 11 8 15 17 18 19 22 22 23 21 14 19 22 10 3
10 8 7 7 6 5 5 6 4 3 3 2 3 3 2 2 2 3 8 11 8 10 16 20 22 19 19 16 15 7 2 1
7 7 7 6 5 5 5 5 4 3 2 1 1 2 3 3 4 5 7 8 10 9 11 12 14 14 16 18 4 6 4 2
Wind_Direction
118 111 105 94 82 75 74 82 80 76 71 73 68 63 65 62 51 46 44 33 26 17 15 11 9 3 359 353 336 333 316 312
127 121 116 106 91 88 81 80 78 78 82 79 71 64 59 61 52 37 37 31 27 10 5 7 3 360 356 349 346 334 319 317
133 133 128 115 102 95 84 84 84 89 82 76 72 69 63 57 48 33 24 23 22 9 2 359 357 352 350 347 336 323 321 317
141 138 129 117 109 102 96 96 92 87 83 73 64 63 58 49 38 31 17 18 15 15 1 353 345 336 335 340 318 314 306 304
150 142 136 132 124 116 110 111 107 96 89 83 71 65 59 47 33 26 9 13 6 3 345 338 330 320 330 325 321 317 311 303
157 146 141 133 127 119 116 109 107 97 88 81 78 65 52 36 23 9 9 356 351 344 335 325 326 324 322 321 314 306 304 300
153 150 151 148 139 134 128 113 102 93 87 75 59 50 37 20 1 352 349 342 338 335 321 317 315 312 318 322 313 304 301 303
161 155 151 146 146 141 135 118 105 102 89 70 55 47 20 353 343 346 341 335 323 313 310 299 297 317 323 324 310 301 301 308
154 146 143 135 126 123 119 116 110 102 100 80 63 42 345 344 334 329 300 303 298 293 291 297 308 326 328 327 314 306 302 304
146 143 141 137 135 126 119 116 112 114 103 103 104 1 316 311 293 294 288 298 285 305 302 301 321 328 328 329 323 319 319 316
142 140 137 137 133 126 129 129 122 111 133 118 127 302 312 296 310 280 299 307 316 318 316 306 310 314 319 325 318 314 314 312
135 139 136 133 132 127 129 121 129 142 127 134 145 275 264 282 312 307 304 293 284 290 286 284 270 277 317 322 317 311 311 313
131 128 128 129 127 129 127 146 131 126 136 170 227 272 321 310 288 287 284 286 286 286 290 269 263 282 315 322 320 318 312 313
131 123 116 121 128 130 148 136 127 120 113 63 336 292 257 272 290 299 289 283 288 284 297 300 272 293 308 312 317 314 304 295
123 125 122 105 97 114 127 131 122 97 62 318 340 322 313 303 265 267 296 297 291 300 301 302 302 300 298 291 305 288 287 280
134 133 134 132 127 122 127 123 108 111 106 347 0 356 302 262 260 262 235 240 280 295 292 298 297 298 301 295 306 306 290 304
127 132 138 132 130 117 104 104 109 78 46 26 313 278 294 311 310 288 299 305 302 297 292 288 289 297 295 288 298 297 303 267
142 129 135 133 124 129 118 107 102 122 230 266 332 324 299 308 319 322 324 312 305 302 301 299 298 300 306 303 297 300 272 219
131 133 140 139 138 132 121 117 134 172 238 207 237 253 302 315 297 298 304 311 311 303 306 302 303 301 300 298 304 294 271 211
129 137 133 132 152 139 138 140 151 171 215 222 296 305 281 283 283 276 283 292 298 308 308 299 308 316 310 301 291 285 262 182